Location: Baumgartsau
(48.4586°N, 14.0864°E)
Time: 05:37:41
(UTC+00:00)

Cosmos 1954 Rocket - Pass Details

Date: 09 April 2020
Orbit: 752 x 781 km, 74.1° (Epoch: 29 May)

Event Time Altitude Azimuth Distance (km) Brightness Sun altitude
Rises 19:28:27 0° 202° (SSW) 3,226 7.1 -16.3°
Reaches altitude 10° 19:30:49 10° 203° (SSW) 2,300 6.4 -16.6°
Maximum altitude 19:36:03 86° 291° (WNW) 771 4.0 -17.4°
Drops below altitude 10° 19:41:17 10° 22° (NNE) 2,298 6.6 -18.1°
Sets 19:43:39 0° 23° (NNE) 3,224 7.4 -18.4°
